REH520 KRDD-KACV

Flight info

Callsign REH520
Flight time 0h 35m
Altitude 12000
Route YAGER
Aircraft BE20/L-SBGRY/S

Departure

Time 2026-04-21 18:25
Airport Redding Municipal Airport (KRDD)

Arrival

Time 2026-04-21 19:00
Airport California Redwood Coast-Humboldt County Airport (KACV)
Time Latitude Longitude Altitude Speed Heading
2026-04-21 18:15 40.51597 -122.29865 506 ft 0 kts 198°
2026-04-21 18:17 40.51596 -122.29865 506 ft 0 kts 197°
2026-04-21 18:20 40.51605 -122.29863 506 ft 2 kts 180°
2026-04-21 18:21 40.51623 -122.29871 506 ft 1 kts 142°
2026-04-21 18:21 40.51615 -122.29860 506 ft 5 kts 125°
2026-04-21 18:21 40.51602 -122.29825 506 ft 4 kts 101°
2026-04-21 18:21 40.51623 -122.29780 506 ft 6 kts 44°
2026-04-21 18:22 40.51647 -122.29749 506 ft 5 kts 44°
2026-04-21 18:22 40.51680 -122.29708 506 ft 8 kts 53°
2026-04-21 18:22 40.51695 -122.29634 506 ft 6 kts 32°
2026-04-21 18:22 40.51750 -122.29629 506 ft 11 kts
2026-04-21 18:23 40.51842 -122.29629 506 ft 15 kts 358°
2026-04-21 18:23 40.51954 -122.29629 506 ft 16 kts
2026-04-21 18:23 40.52030 -122.29568 506 ft 11 kts 95°
2026-04-21 18:23 40.52027 -122.29553 506 ft 5 kts 101°
2026-04-21 18:24 40.52001 -122.29485 506 ft 10 kts 165°
2026-04-21 18:24 40.51909 -122.29485 506 ft 26 kts 178°
2026-04-21 18:24 40.51528 -122.29486 507 ft 83 kts 181°
2026-04-21 18:24 40.50848 -122.29488 692 ft 107 kts 185°
2026-04-21 18:25 40.50247 -122.30116 1005 ft 130 kts 236°
2026-04-21 18:25 40.50082 -122.31371 1257 ft 150 kts 266°
2026-04-21 18:25 40.50384 -122.32710 1577 ft 160 kts 290°
2026-04-21 18:25 40.51015 -122.33916 1921 ft 162 kts 300°
2026-04-21 18:26 40.51767 -122.35089 2057 ft 175 kts 308°
2026-04-21 18:26 40.52613 -122.36277 2162 ft 179 kts 310°
2026-04-21 18:26 40.53392 -122.37550 2271 ft 178 kts 294°
2026-04-21 18:26 40.53642 -122.39104 2379 ft 172 kts 268°
2026-04-21 18:27 40.53641 -122.40645 2519 ft 170 kts 263°
2026-04-21 18:27 40.53540 -122.42180 2670 ft 165 kts 249°
2026-04-21 18:27 40.53013 -122.43466 2895 ft 156 kts 230°
2026-04-21 18:27 40.52425 -122.44639 3197 ft 152 kts 234°
2026-04-21 18:28 40.51999 -122.45904 3532 ft 151 kts 245°
2026-04-21 18:28 40.51768 -122.47255 3886 ft 152 kts 255°
2026-04-21 18:28 40.51671 -122.48644 4237 ft 153 kts 261°
2026-04-21 18:28 40.51666 -122.50042 4592 ft 153 kts 264°
2026-04-21 18:29 40.51709 -122.51425 4959 ft 153 kts 266°
2026-04-21 18:29 40.51764 -122.52822 5335 ft 153 kts 266°
2026-04-21 18:29 40.51823 -122.54221 5707 ft 153 kts 265°
2026-04-21 18:29 40.51875 -122.55617 6081 ft 153 kts 265°
2026-04-21 18:30 40.51921 -122.57016 6459 ft 156 kts 265°
2026-04-21 18:30 40.51970 -122.58464 6849 ft 160 kts 265°
2026-04-21 18:30 40.52019 -122.59930 7255 ft 161 kts 265°
2026-04-21 18:30 40.52067 -122.61391 7699 ft 159 kts 264°
2026-04-21 18:31 40.52119 -122.62839 8148 ft 158 kts 265°
2026-04-21 18:31 40.52172 -122.64279 8596 ft 158 kts 265°
2026-04-21 18:31 40.52222 -122.65719 9046 ft 157 kts 265°
2026-04-21 18:31 40.52267 -122.67155 9491 ft 156 kts 265°
2026-04-21 18:32 40.52313 -122.68558 9937 ft 155 kts 266°
2026-04-21 18:32 40.52364 -122.69989 10394 ft 154 kts 266°
2026-04-21 18:32 40.52411 -122.71376 10839 ft 154 kts 267°
2026-04-21 18:32 40.52463 -122.72789 11294 ft 155 kts 267°
2026-04-21 18:33 40.52513 -122.74212 11751 ft 155 kts 268°
2026-04-21 18:33 40.52562 -122.75687 11973 ft 169 kts 268°
2026-04-21 18:33 40.52616 -122.77296 12016 ft 182 kts 269°
2026-04-21 18:33 40.52679 -122.78997 12011 ft 190 kts 269°
2026-04-21 18:34 40.52743 -122.80753 12007 ft 193 kts 269°
2026-04-21 18:34 40.52809 -122.82524 12005 ft 195 kts 270°
2026-04-21 18:34 40.52875 -122.84310 12001 ft 195 kts 269°
2026-04-21 18:34 40.52935 -122.86099 12000 ft 196 kts 269°
2026-04-21 18:35 40.52973 -122.87281 12000 ft 196 kts 269°
2026-04-21 18:35 40.53044 -122.89649 12000 ft 196 kts 269°
2026-04-21 18:35 40.53102 -122.91436 11999 ft 196 kts 269°
2026-04-21 18:35 40.53161 -122.93226 11997 ft 196 kts 269°
2026-04-21 18:36 40.53220 -122.95016 11994 ft 196 kts 270°
2026-04-21 18:36 40.53280 -122.96802 11994 ft 196 kts 270°
2026-04-21 18:36 40.53339 -122.98593 11994 ft 196 kts 270°
2026-04-21 18:36 40.53398 -123.00383 11994 ft 196 kts 270°
2026-04-21 18:37 40.53457 -123.02172 11994 ft 196 kts 270°
2026-04-21 18:37 40.53514 -123.03958 11994 ft 196 kts 270°
2026-04-21 18:37 40.53571 -123.05746 11994 ft 195 kts 270°
2026-04-21 18:37 40.53627 -123.07519 11964 ft 195 kts 270°
2026-04-21 18:38 40.53682 -123.09342 11733 ft 202 kts 270°
2026-04-21 18:38 40.53740 -123.11201 11474 ft 204 kts 270°
2026-04-21 18:38 40.53798 -123.13067 11176 ft 205 kts 270°
2026-04-21 18:38 40.53856 -123.14926 10880 ft 206 kts 270°
2026-04-21 18:39 40.53915 -123.16810 10579 ft 206 kts 269°
2026-04-21 18:39 40.53972 -123.18699 10278 ft 206 kts 269°
2026-04-21 18:39 40.54025 -123.20578 9980 ft 206 kts 269°
2026-04-21 18:39 40.54075 -123.22458 9704 ft 205 kts 269°
2026-04-21 18:40 40.54125 -123.24331 9427 ft 205 kts 269°
2026-04-21 18:40 40.54177 -123.26196 9163 ft 205 kts 269°
2026-04-21 18:40 40.54215 -123.27442 8998 ft 206 kts 269°
2026-04-21 18:40 40.54288 -123.29976 8664 ft 207 kts 268°
2026-04-21 18:41 40.54334 -123.31863 8414 ft 207 kts 268°
2026-04-21 18:41 40.54385 -123.33754 8164 ft 207 kts 269°
2026-04-21 18:41 40.54449 -123.35635 7915 ft 206 kts 269°
2026-04-21 18:41 40.54512 -123.37520 7667 ft 206 kts 269°
2026-04-21 18:42 40.54576 -123.39398 7417 ft 206 kts 269°
2026-04-21 18:42 40.54634 -123.41271 7163 ft 204 kts 269°
2026-04-21 18:42 40.54685 -123.43137 6915 ft 204 kts 268°
2026-04-21 18:42 40.54738 -123.44998 6666 ft 204 kts 269°
2026-04-21 18:43 40.54795 -123.46855 6414 ft 203 kts 269°
2026-04-21 18:43 40.54845 -123.48677 6182 ft 202 kts 268°
2026-04-21 18:43 40.54905 -123.50506 6054 ft 198 kts 269°
2026-04-21 18:43 40.54953 -123.52289 6011 ft 193 kts 271°
2026-04-21 18:44 40.55001 -123.54045 6003 ft 191 kts 269°
2026-04-21 18:44 40.55034 -123.55773 6009 ft 189 kts 268°
2026-04-21 18:44 40.55066 -123.57497 6000 ft 188 kts 268°
2026-04-21 18:44 40.55113 -123.59215 6001 ft 187 kts 269°
2026-04-21 18:45 40.55163 -123.60931 6005 ft 187 kts 269°
2026-04-21 18:45 40.55214 -123.62642 6004 ft 187 kts 269°
2026-04-21 18:45 40.55263 -123.64357 6003 ft 187 kts 268°
2026-04-21 18:45 40.55307 -123.66066 6004 ft 187 kts 268°
2026-04-21 18:46 40.55353 -123.67774 6006 ft 187 kts 269°
2026-04-21 18:46 40.55407 -123.69460 6002 ft 187 kts 269°
2026-04-21 18:46 40.55454 -123.71168 6006 ft 187 kts 268°
2026-04-21 18:46 40.55498 -123.72878 6007 ft 187 kts 269°
2026-04-21 18:47 40.55542 -123.74587 6004 ft 187 kts 269°
2026-04-21 18:47 40.55595 -123.76298 6003 ft 187 kts 269°
2026-04-21 18:47 40.55637 -123.78006 6006 ft 187 kts 268°
2026-04-21 18:47 40.55680 -123.79712 6000 ft 187 kts 268°
2026-04-21 18:48 40.55913 -123.81389 5967 ft 192 kts 285°
2026-04-21 18:48 40.56634 -123.82906 5794 ft 201 kts 313°
2026-04-21 18:48 40.57845 -123.83804 5747 ft 200 kts 338°
2026-04-21 18:48 40.59107 -123.84547 5710 ft 198 kts 332°
2026-04-21 18:49 40.60325 -123.85388 5707 ft 197 kts 330°
2026-04-21 18:49 40.61528 -123.86241 5703 ft 196 kts 330°
2026-04-21 18:49 40.62326 -123.86805 5707 ft 196 kts 330°
2026-04-21 18:49 40.63939 -123.87926 5706 ft 195 kts 330°
2026-04-21 18:50 40.65147 -123.88753 5707 ft 195 kts 331°
2026-04-21 18:50 40.66345 -123.89563 5705 ft 196 kts 331°
2026-04-21 18:50 40.67559 -123.90379 5705 ft 196 kts 331°
2026-04-21 18:50 40.68775 -123.91198 5705 ft 196 kts 332°
2026-04-21 18:51 40.69986 -123.92010 5706 ft 195 kts 332°
2026-04-21 18:51 40.71196 -123.92823 5705 ft 195 kts 332°
2026-04-21 18:51 40.72407 -123.93633 5702 ft 195 kts 332°
2026-04-21 18:51 40.73617 -123.94447 5705 ft 195 kts 332°
2026-04-21 18:52 40.74827 -123.95262 5638 ft 198 kts 332°
2026-04-21 18:52 40.76080 -123.96107 5341 ft 205 kts 332°
2026-04-21 18:52 40.77351 -123.96961 5043 ft 205 kts 332°
2026-04-21 18:52 40.78616 -123.97811 4740 ft 204 kts 333°
2026-04-21 18:53 40.79843 -123.98651 4587 ft 169 kts 330°
2026-04-21 18:53 40.80774 -123.99307 4200 ft 151 kts 332°
2026-04-21 18:53 40.81712 -123.99938 3895 ft 152 kts 333°
2026-04-21 18:53 40.82612 -124.00546 3598 ft 137 kts 334°
2026-04-21 18:54 40.83402 -124.01088 3276 ft 122 kts 334°
2026-04-21 18:54 40.84100 -124.01573 3187 ft 112 kts 334°
2026-04-21 18:54 40.84785 -124.02048 3102 ft 106 kts 335°
2026-04-21 18:54 40.85414 -124.02476 2883 ft 99 kts 335°
2026-04-21 18:55 40.85834 -124.02754 2735 ft 100 kts 335°
2026-04-21 18:55 40.86646 -124.03275 2468 ft 99 kts 335°
2026-04-21 18:55 40.87251 -124.03678 2317 ft 94 kts 336°
2026-04-21 18:55 40.87831 -124.04078 2172 ft 96 kts 334°
2026-04-21 18:56 40.88425 -124.04439 2052 ft 92 kts 335°
2026-04-21 18:56 40.89026 -124.04816 1965 ft 99 kts 334°
2026-04-21 18:56 40.89622 -124.05212 1889 ft 93 kts 332°
2026-04-21 18:56 40.90189 -124.05597 1767 ft 90 kts 331°
2026-04-21 18:57 40.90743 -124.05961 1628 ft 89 kts 330°
2026-04-21 18:57 40.91315 -124.06375 1514 ft 97 kts 329°
2026-04-21 18:57 40.91887 -124.06777 1417 ft 90 kts 329°
2026-04-21 18:57 40.92459 -124.07166 1286 ft 97 kts 329°
2026-04-21 18:58 40.93053 -124.07580 1181 ft 93 kts 329°
2026-04-21 18:58 40.93599 -124.07955 989 ft 84 kts 329°
2026-04-21 18:58 40.94100 -124.08290 807 ft 81 kts 328°
2026-04-21 18:58 40.94624 -124.08648 762 ft 85 kts 328°
2026-04-21 18:59 40.95141 -124.09004 691 ft 85 kts 328°
2026-04-21 18:59 40.95671 -124.09368 587 ft 86 kts 329°
2026-04-21 18:59 40.96198 -124.09738 448 ft 86 kts 328°
2026-04-21 18:59 40.96733 -124.10092 318 ft 85 kts 330°
2026-04-21 19:00 40.97262 -124.10460 242 ft 86 kts 327°
2026-04-21 19:00 40.97761 -124.10807 223 ft 71 kts 330°
2026-04-21 19:00 40.98057 -124.11006 222 ft 25 kts 329°
2026-04-21 19:00 40.98076 -124.11107 222 ft 13 kts 226°
2026-04-21 19:01 40.98014 -124.11107 222 ft 11 kts 144°
2026-04-21 19:01 40.97912 -124.11028 222 ft 23 kts 153°
2026-04-21 19:01 40.97748 -124.10929 222 ft 28 kts 160°
2026-04-21 19:01 40.97552 -124.10868 222 ft 27 kts 183°
2026-04-21 19:02 40.97400 -124.10866 222 ft 22 kts 178°
2026-04-21 19:02 40.97356 -124.10893 222 ft 0 kts 278°